Location: Newark
(33.8000°N, 42.4333°E)
Time: 18:27:23
(UTC+00:00)

ISS - Visible Passes

Search period start: 22 November 2019 00:00
Search period end: 02 December 2019 00:00
Orbit: 412 x 421 km, 51.6° (Epoch: 23 November)

Date Brightness Start Highest point End Pass type
(mag) Time Alt. Az. Time Alt. Az. Time Alt. Az.
22 Nov -1.7 15:54:16 10° W 15:56:55 21° NW 15:56:59 21° NNW visible
23 Nov -2.5 15:05:17 10° WSW 15:08:22 35° NW 15:10:44 15° NNE visible
25 Nov -1.2 15:06:31 10° WNW 15:08:29 15° NNW 15:10:28 10° N visible
